When you browse on this site, cookies collect data to enhance your experience and personalize the content and advertising you see.
Visit our Privacy Policy to learn more. By continuing to use the site, you agree to this use of cookies and data.
  • en Suisse
  • Liste des pays
  • À 7 jours
  • Température de l'eau
  • Carte météo
  • Widgets météo
  • user-avatar
    Se connecter

    Météo par heure à Amiens

    Ce jour, 17 Novembre, Dimanche

    Heure Température Précipitation Vent Pression Humidité
    00:00 +3°C° 0 mm 2 m/s 755 mmHg 94%
    01:00 +3°C° 0 mm 2 m/s 755 mmHg 93%
    02:00 +3°C° 0 mm 2 m/s 755 mmHg 93%
    03:00 +3°C° 0 mm 1 m/s 755 mmHg 93%
    04:00 +3°C° 0 mm 1 m/s 755 mmHg 93%
    05:00 +3°C° 0 mm 1 m/s 755 mmHg 93%
    06:00 +3°C° 0 mm 1 m/s 755 mmHg 93%
    07:00 +3°C° 0 mm 1 m/s 755 mmHg 92%
    08:00 +4°C° 0 mm 1 m/s 755 mmHg 90%
    09:00 +5°C° 0 mm 1 m/s 756 mmHg 88%
    10:00 +6°C° 0 mm 1 m/s 755 mmHg 84%
    11:00 +7°C° 0 mm 1 m/s 755 mmHg 80%
    12:00 +7°C° 0 mm 2 m/s 755 mmHg 77%
    13:00 +7°C° 0 mm 2 m/s 755 mmHg 79%
    14:00 +6°C° 0 mm 2 m/s 755 mmHg 82%
    15:00 +6°C° 0 mm 2 m/s 755 mmHg 84%
    16:00 +5°C° 0 mm 2 m/s 755 mmHg 86%
    17:00 +5°C° 0 mm 2 m/s 755 mmHg 88%
    18:00 +4°C° 0 mm 2 m/s 756 mmHg 90%
    19:00 +4°C° 0 mm 2 m/s 756 mmHg 91%
    20:00 +3°C° 0 mm 2 m/s 756 mmHg 92%
    21:00 +3°C° 0 mm 2 m/s 756 mmHg 93%
    22:00 +3°C° 0 mm 2 m/s 756 mmHg 93%
    23:00 +3°C° 0 mm 2 m/s 756 mmHg 93%

    Demain, 18 Novembre, Lundi

    Heure Température Précipitation Vent Pression Humidité
    00:00 +3°C° 0 mm 2 m/s 756 mmHg 93%
    01:00 +3°C° 0 mm 2 m/s 756 mmHg 92%
    02:00 +3°C° 0 mm 2 m/s 756 mmHg 92%
    03:00 +3°C° 0 mm 2 m/s 756 mmHg 91%
    04:00 +3°C° 0.3 mm 3 m/s 756 mmHg 91%
    05:00 +4°C° 0.3 mm 3 m/s 756 mmHg 92%
    06:00 +4°C° 0.3 mm 4 m/s 756 mmHg 92%
    07:00 +5°C° 0.4 mm 4 m/s 756 mmHg 92%
    08:00 +5°C° 0.4 mm 4 m/s 756 mmHg 92%
    09:00 +5°C° 0.4 mm 4 m/s 756 mmHg 92%
    10:00 +6°C° 0.6 mm 4 m/s 756 mmHg 91%
    11:00 +7°C° 0.6 mm 3 m/s 755 mmHg 90%
    12:00 +8°C° 0.6 mm 2 m/s 755 mmHg 89%
    13:00 +7°C° 0.9 mm 3 m/s 755 mmHg 91%
    14:00 +7°C° 0.9 mm 3 m/s 755 mmHg 94%
    15:00 +7°C° 0.9 mm 3 m/s 755 mmHg 96%
    16:00 +6°C° 0.6 mm 4 m/s 755 mmHg 93%
    17:00 +6°C° 0.6 mm 4 m/s 756 mmHg 90%
    18:00 +6°C° 0.6 mm 4 m/s 756 mmHg 87%
    19:00 +6°C° 0 mm 4 m/s 756 mmHg 86%
    20:00 +6°C° 0 mm 4 m/s 756 mmHg 85%
    21:00 +5°C° 0 mm 4 m/s 757 mmHg 85%
    22:00 +5°C° 0 mm 4 m/s 757 mmHg 83%
    23:00 +5°C° 0 mm 3 m/s 757 mmHg 80%

    Après-demain, 19 Novembre, Mardi

    Heure Température Précipitation Vent Pression Humidité
    00:00 +5°C° 0 mm 3 m/s 757 mmHg 78%
    01:00 +4°C° 0 mm 3 m/s 757 mmHg 78%
    02:00 +4°C° 0 mm 3 m/s 757 mmHg 77%
    03:00 +4°C° 0 mm 2 m/s 757 mmHg 77%
    04:00 +4°C° 0 mm 2 m/s 758 mmHg 78%
    05:00 +3°C° 0 mm 2 m/s 758 mmHg 80%
    06:00 +3°C° 0 mm 2 m/s 758 mmHg 81%
    07:00 +3°C° 0 mm 2 m/s 758 mmHg 80%
    08:00 +5°C° 0 mm 1 m/s 758 mmHg 79%
    09:00 +5°C° 0 mm 1 m/s 759 mmHg 78%
    10:00 +6°C° 0 mm 1 m/s 759 mmHg 73%
    11:00 +6°C° 0 mm 2 m/s 759 mmHg 68%
    12:00 +7°C° 0 mm 2 m/s 759 mmHg 63%
    13:00 +7°C° 0 mm 2 m/s 759 mmHg 65%
    14:00 +8°C° 0 mm 1 m/s 759 mmHg 67%
    15:00 +7°C° 0 mm 1 m/s 759 mmHg 70%
    16:00 +6°C° 0 mm 1 m/s 759 mmHg 74%
    17:00 +5°C° 0 mm 1 m/s 759 mmHg 79%
    18:00 +3°C° 0 mm 2 m/s 759 mmHg 84%
    19:00 +3°C° 0 mm 2 m/s 759 mmHg 86%
    20:00 +3°C° 0 mm 2 m/s 759 mmHg 88%
    21:00 +2°C° 0 mm 2 m/s 759 mmHg 90%
    22:00 +2°C° 0 mm 2 m/s 759 mmHg 91%
    23:00 +2°C° 0 mm 2 m/s 759 mmHg 92%

    20 Novembre, Mercredi

    Heure Température Précipitation Vent Pression Humidité
    00:00 +1°C° 0 mm 3 m/s 759 mmHg 93%
    01:00 +1°C° 0 mm 3 m/s 759 mmHg 93%
    02:00 +1°C° 0 mm 3 m/s 758 mmHg 93%
    03:00 +1°C° 0 mm 3 m/s 758 mmHg 94%
    04:00 +1°C° 0 mm 3 m/s 758 mmHg 94%
    05:00 +1°C° 0 mm 3 m/s 758 mmHg 94%
    06:00 0°C° 0 mm 4 m/s 758 mmHg 94%
    07:00 +1°C° 0 mm 4 m/s 758 mmHg 92%
    08:00 +1°C° 0 mm 5 m/s 758 mmHg 90%
    09:00 +2°C° 0 mm 5 m/s 758 mmHg 87%
    10:00 +3°C° 0 mm 5 m/s 757 mmHg 82%
    11:00 +4°C° 0 mm 6 m/s 757 mmHg 78%
    12:00 +4°C° 0 mm 6 m/s 757 mmHg 73%
    13:00 +4°C° 0 mm 6 m/s 756 mmHg 74%
    14:00 +5°C° 0 mm 5 m/s 755 mmHg 75%
    15:00 +5°C° 0 mm 5 m/s 755 mmHg 76%
    16:00 +3°C° 0 mm 5 m/s 755 mmHg 81%
    17:00 +2°C° 0 mm 5 m/s 755 mmHg 85%
    18:00 +1°C° 0 mm 5 m/s 754 mmHg 90%
    19:00 +1°C° 0 mm 5 m/s 754 mmHg 91%
    20:00 +1°C° 0 mm 5 m/s 754 mmHg 92%
    21:00 +1°C° 0 mm 4 m/s 754 mmHg 93%
    22:00 +1°C° 0 mm 4 m/s 753 mmHg 93%
    23:00 0°C° 0 mm 4 m/s 753 mmHg 93%

    21 Novembre, Jeudi

    Heure Température Précipitation Vent Pression Humidité
    00:00 0°C° 0 mm 4 m/s 752 mmHg 93%
    01:00 +1°C° 0 mm 4 m/s 752 mmHg 92%
    02:00 +1°C° 0 mm 4 m/s 751 mmHg 92%
    03:00 +1°C° 0 mm 4 m/s 751 mmHg 91%
    04:00 +1°C° 0 mm 4 m/s 751 mmHg 90%
    05:00 +3°C° 0 mm 4 m/s 751 mmHg 89%
    06:00 +4°C° 0 mm 4 m/s 750 mmHg 89%
    07:00 +4°C° 0 mm 4 m/s 750 mmHg 89%
    08:00 +5°C° 0 mm 4 m/s 750 mmHg 90%
    09:00 +5°C° 0 mm 5 m/s 750 mmHg 91%
    10:00 +7°C° 0 mm 5 m/s 750 mmHg 88%
    11:00 +8°C° 0 mm 6 m/s 749 mmHg 85%
    12:00 +9°C° 0 mm 6 m/s 749 mmHg 82%
    13:00 +8°C° 0 mm 6 m/s 749 mmHg 83%
    14:00 +8°C° 0 mm 6 m/s 748 mmHg 84%
    15:00 +7°C° 0 mm 6 m/s 748 mmHg 86%
    16:00 +7°C° 0.2 mm 6 m/s 748 mmHg 87%
    17:00 +7°C° 0.2 mm 6 m/s 748 mmHg 88%
    18:00 +5°C° 0.2 mm 6 m/s 748 mmHg 90%
    19:00 +5°C° 0.3 mm 6 m/s 748 mmHg 90%
    20:00 +7°C° 0.3 mm 5 m/s 748 mmHg 90%
    21:00 +7°C° 0.3 mm 5 m/s 748 mmHg 91%
    22:00 +6°C° 0.3 mm 5 m/s 748 mmHg 91%
    23:00 +6°C° 0.3 mm 4 m/s 748 mmHg 92%

    22 Novembre, Vendredi

    Heure Température Précipitation Vent Pression Humidité
    00:00 +6°C° 0.3 mm 4 m/s 748 mmHg 92%
    01:00 +6°C° 0.1 mm 4 m/s 749 mmHg 93%
    02:00 +5°C° 0.1 mm 4 m/s 749 mmHg 94%
    03:00 +5°C° 0.1 mm 4 m/s 749 mmHg 94%
    04:00 +4°C° 0 mm 4 m/s 749 mmHg 94%
    05:00 +4°C° 0 mm 4 m/s 749 mmHg 94%
    06:00 +4°C° 0 mm 4 m/s 749 mmHg 94%
    07:00 +4°C° 0 mm 4 m/s 750 mmHg 92%
    08:00 +5°C° 0 mm 4 m/s 750 mmHg 89%
    09:00 +5°C° 0 mm 4 m/s 750 mmHg 86%
    10:00 +6°C° 0 mm 4 m/s 750 mmHg 85%
    11:00 +7°C° 0 mm 4 m/s 750 mmHg 84%
    12:00 +8°C° 0 mm 5 m/s 750 mmHg 84%
    13:00 +8°C° 0 mm 4 m/s 750 mmHg 84%
    14:00 +8°C° 0 mm 4 m/s 750 mmHg 84%
    15:00 +9°C° 0 mm 3 m/s 750 mmHg 85%
    16:00 +9°C° 0 mm 3 m/s 751 mmHg 88%
    17:00 +8°C° 0 mm 3 m/s 751 mmHg 91%
    18:00 +7°C° 0 mm 3 m/s 751 mmHg 94%
    19:00 +7°C° 0 mm 2 m/s 752 mmHg 94%
    20:00 +7°C° 0 mm 2 m/s 752 mmHg 94%
    21:00 +7°C° 0 mm 2 m/s 752 mmHg 94%
    22:00 +7°C° 0 mm 2 m/s 753 mmHg 95%
    23:00 +7°C° 0 mm 2 m/s 753 mmHg 95%
    Voir plus